Temp
18 18 18 18 18 18 18 18 18 18 18 18 19 19 19 20 20 19 19 19 19 19 18 18 18 18 17 17 17 16 16 16 15 15 15 15 15 15 15 14 14 14 14
18 18 18 18 18 17 18 18 18 18 19 19 19 19 19 20 20 19 19 19 19 19 19 18 18 18 18 17 17 17 16 16 16 16 15 15 14 14 14 14 14 14 14
17 17 17 17 18 17 18 18 18 18 18 18 19 19 19 20 20 20 20 19 19 19 19 18 18 18 18 17 16 17 16 16 16 16 16 15 15 15 14 14 14 14 14
17 17 17 18 18 18 18 18 18 19 19 19 20 20 20 20 20 20 20 20 19 19 19 18 18 18 18 17 17 16 16 15 15 15 15 15 14 14 14 14 13 13 13
17 17 17 18 18 18 18 18 18 19 19 19 20 20 20 20 20 20 19 19 18 18 18 18 17 17 18 17 16 16 15 15 15 14 14 13 13 13 13 14 14 14 13
17 16 17 18 18 18 18 18 19 19 19 20 19 19 20 20 20 19 18 18 18 17 17 17 17 17 16 16 16 15 14 14 14 15 13 13 12 12 13 13 13 13 14
17 17 17 18 18 18 18 19 19 19 18 19 19 20 20 20 19 18 17 17 17 16 16 16 16 16 14 15 14 14 13 14 13 13 13 12 12 12 12 13 13 13 13
17 17 16 17 17 18 18 18 18 18 19 18 19 19 20 20 19 17 16 16 16 15 15 14 14 14 13 13 13 13 13 13 13 13 12 12 12 12 12 12 12 12 12
17 17 16 16 16 16 16 16 15 16 17 17 17 18 20 20 18 19 16 15 15 15 14 13 13 12 12 12 13 13 13 13 12 12 12 12 12 12 12 12 12 12 12
16 16 16 15 15 15 15 15 16 15 15 16 16 15 16 17 18 19 17 15 14 14 13 13 13 11 11 12 12 12 12 12 11 11 11 11 11 11 11 11 11 11 12
15 16 16 16 15 14 14 14 15 15 15 15 15 16 16 16 15 16 17 17 14 13 12 12 12 11 10 11 11 11 11 11 10 10 11 10 10 10 10 10 11 10 10
15 15 15 15 15 14 15 15 15 15 15 15 14 13 14 16 16 15 16 15 14 14 11 11 11 10 9 9 10 10 10 9 9 9 9 9 8 8 8 9 9 9 9
14 15 15 14 15 15 15 14 15 15 15 15 14 13 12 12 12 13 13 13 13 13 12 10 10 8 8 8 8 8 8 9 9 8 8 8 7 7 7 8 8 8 8
14 15 14 14 14 14 14 14 14 15 15 15 13 12 11 11 10 11 12 11 12 13 12 12 8 8 7 7 8 8 7 7 7 6 6 6 6 6 6 6 6 7 7
13 14 14 14 14 14 13 14 13 13 13 12 11 10 10 10 9 9 9 9 10 11 13 12 10 7 7 7 6 6 6 6 6 5 5 5 5 5 5 5 5 6 6
13 13 12 12 12 12 13 13 12 12 11 11 10 10 9 9 9 8 8 8 8 8 9 9 8 6 6 6 5 5 5 5 5 4 4 4 4 4 4 4 4 4 5
12 12 11 12 12 12 12 12 11 11 10 9 10 8 8 8 8 7 7 7 7 8 8 8 7 6 5 5 5 4 4 4 4 4 3 3 3 3 3 2 3 3 4
11 11 11 11 11 11 11 10 10 9 9 8 7 7 7 7 7 7 7 7 7 7 6 7 5 5 5 4 4 4 4 3 2 3 2 3 2 2 2 1 3 4 4
9 9 10 10 10 10 9 9 8 8 7 7 7 7 7 7 7 7 6 6 5 5 5 5 5 4 4 3 3 2 2 2 2 2 2 2 1 1 2 2 2 3 4
9 9 9 9 9 9 8 8 8 7 6 6 5 5 5 6 6 5 5 5 4 4 4 4 4 3 3 3 2 2 1 1 1 2 2 2 2 2 2 2 2 2 3
8 8 7 7 7 7 7 8 7 6 6 5 5 4 4 4 5 4 4 4 3 3 3 3 3 3 2 1 1 2 2 1 1 0 0 -0 -0 0 0 0 0 -0 0
7 7 7 7 6 6 7 6 5 5 5 5 4 3 3 4 3 3 3 3 2 3 3 2 3 2 2 2 2 2 2 2 3 0 -0 -0 -0 -1 -1 -1 -1 -1 -0
6 6 6 6 5 5 6 5 5 4 4 4 3 3 3 3 2 2 2 2 2 2 2 2 2 2 3 3 2 1 1 1 2 0 -1 1 -1 -1 -1 -1 -2 -1 -1
5 5 5 5 5 5 5 5 4 4 3 3 3 3 2 2 2 1 1 1 1 1 1 1 2 2 2 2 1 1 0 0 -1 -0 -1 1 -2 -1 -2 -2 -1 -2 -1
5 4 4 4 4 4 4 4 3 3 3 2 2 2 2 2 2 2 1 0 0 0 0 1 1 1 1 1 0 0 -1 -0 1 -0 -1 -1 -2 -2 -2 -2 -2 -2 -2
5 5 4 4 3 4 4 3 2 2 3 2 1 2 2 2 1 1 1 1 1 1 -0 -1 -1 -1 -1 -0 -0 -0 -1 -1 -0 -0 -2 -1 -2 -2 -1 -3 -3 -3 -3
Height
825 828 831 833 834 836 837 838 838 840 840 841 841 841 842 842 842 842 842 841 841 841 841 840 839 839 838 837 837 835 834 834 833 834 831 830 829 829 828 830 829 828 827
824 827 829 832 833 835 836 837 837 839 839 840 840 840 840 841 840 841 840 840 839 839 838 838 838 837 836 836 836 836 834 832 831 830 831 829 829 829 828 827 827 827 826
823 825 828 830 832 834 834 836 836 838 838 837 838 838 838 839 839 839 839 838 838 837 836 835 835 835 835 834 834 834 834 833 832 831 831 828 828 827 827 826 826 827 826
820 824 828 829 830 833 833 834 834 835 836 836 836 837 837 837 837 837 838 837 837 836 835 834 832 833 832 832 832 833 833 834 833 832 831 828 827 826 824 824 824 825 825
817 821 824 827 828 830 831 832 832 834 834 834 834 835 835 834 834 834 834 834 834 832 832 832 831 830 830 831 831 832 832 832 832 832 830 829 828 826 825 822 821 822 822
814 818 821 824 825 827 829 829 830 831 832 833 833 834 834 833 832 831 832 832 831 829 829 829 829 829 829 830 830 830 831 830 830 830 830 828 827 823 823 821 820 819 818
812 814 818 822 823 825 826 827 828 829 831 832 832 831 831 830 830 830 830 830 831 830 828 828 829 829 828 828 828 829 831 830 831 830 829 828 827 826 822 822 821 819 819
810 812 816 819 821 822 824 824 824 827 827 829 829 830 828 828 829 829 829 827 829 829 827 826 827 828 830 830 828 829 829 830 830 829 830 828 827 826 822 820 819 819 817
806 810 813 815 817 819 820 821 821 824 826 827 828 830 826 824 828 826 828 826 826 828 826 827 826 825 826 826 825 827 827 827 829 829 829 827 827 825 823 820 819 819 816
805 808 809 811 810 809 814 817 820 823 825 827 827 827 827 826 826 824 825 825 826 826 826 826 828 827 827 825 825 827 827 826 826 827 828 825 825 824 823 819 816 816 814
804 805 806 806 808 811 810 814 816 820 823 826 825 826 826 826 827 825 821 821 825 823 824 825 827 827 825 825 822 821 822 822 823 824 824 824 823 822 823 819 817 814 813
798 800 801 801 804 806 807 809 813 816 818 817 821 825 825 825 823 823 821 820 821 821 821 821 823 825 824 824 824 823 823 823 822 823 823 822 820 820 820 820 816 812 813
792 793 796 798 798 800 802 808 811 813 813 813 818 821 820 821 821 821 822 821 821 820 818 817 821 821 822 821 822 822 821 822 823 823 823 822 819 817 817 816 815 813 811
783 788 791 791 794 799 800 806 809 809 809 810 815 817 817 817 818 819 820 821 822 820 818 817 816 818 819 820 818 821 819 820 821 821 820 821 816 817 815 816 812 812 809
779 784 788 790 791 797 799 801 806 808 808 810 812 813 814 814 813 815 815 818 822 819 815 815 817 816 818 817 816 818 817 818 820 819 819 818 818 820 816 814 810 812 809
777 780 784 788 792 796 797 801 804 805 806 808 810 811 811 810 811 812 813 815 818 822 818 818 815 816 816 815 817 816 817 817 819 816 818 818 816 818 815 813 811 812 808
775 778 782 785 790 792 794 798 803 802 803 805 806 808 809 808 808 809 811 813 815 818 817 813 812 814 814 815 815 816 817 818 817 816 816 815 817 816 815 812 810 810 807
773 776 780 784 788 791 792 797 800 800 801 802 805 805 804 805 806 809 811 812 813 815 814 811 812 812 812 814 814 815 815 816 817 816 817 815 817 814 813 812 810 809 807
772 775 779 782 785 788 791 793 796 797 800 801 801 801 801 802 805 807 808 810 811 810 809 810 809 809 810 811 813 813 813 813 814 815 816 816 815 813 812 812 810 807 807
770 773 778 780 782 785 787 790 791 791 794 797 799 800 800 800 803 804 805 805 806 807 807 808 807 806 807 809 810 811 811 811 813 814 815 815 812 811 811 810 809 808 806
772 775 779 780 781 782 784 786 788 790 792 792 794 798 799 799 799 802 801 801 803 804 804 804 804 804 806 807 808 808 809 811 813 812 813 814 812 810 811 809 809 808 806
772 772 775 777 778 779 782 784 786 786 791 791 789 792 797 797 797 798 798 798 800 801 800 799 800 801 803 804 805 806 809 810 812 809 810 811 811 810 810 810 809 808 807
770 770 772 774 778 778 779 783 785 788 788 788 787 788 792 795 796 797 797 797 797 797 796 798 798 799 801 802 804 806 807 808 809 809 809 809 808 810 810 811 809 809 808
770 770 771 776 778 777 777 780 782 784 785 788 787 786 788 789 792 795 795 795 795 795 796 796 797 798 799 800 803 804 806 807 807 807 808 808 808 809 809 809 809 809 808
770 768 770 772 772 774 775 778 780 782 784 786 783 782 786 787 789 790 791 793 794 795 795 795 795 795 797 798 801 803 804 805 807 808 807 808 808 808 808 809 808 808 808
761 764 765 768 771 773 772 776 777 779 778 779 780 780 783 784 785 787 789 791 793 794 794 796 796 797 798 798 800 801 802 804 806 807 806 808 807 807 807 807 807 808 809
Wind_Speed
13 12 11 10 9 8 8 7 6 6 6 5 4 5 5 5 5 4 4 6 6 8 9 10 11 11 11 9 7 5 4 4 7 9 11 10 9 7 5 4 4 3 2
12 11 11 9 8 8 7 7 7 6 6 5 5 5 4 5 5 5 5 7 9 9 11 11 12 11 11 8 6 5 2 3 4 6 8 11 11 10 7 6 5 5 4
10 11 9 8 8 8 8 8 7 7 6 6 6 5 5 6 6 7 8 8 9 12 13 11 11 12 14 9 7 5 3 3 3 7 9 7 10 12 11 9 8 7 6
12 10 9 9 8 9 9 9 8 8 8 6 6 6 6 6 8 9 9 11 11 13 14 15 14 14 13 11 8 5 2 2 4 7 9 8 6 6 10 15 12 11 9
15 13 10 10 10 10 10 10 9 9 8 7 6 6 7 8 8 9 11 12 13 14 14 15 16 13 11 10 8 6 2 0 4 6 7 8 8 8 9 8 12 14 12
15 15 12 12 12 11 11 11 10 9 7 6 6 7 8 9 9 9 11 12 10 9 8 8 9 7 9 8 9 6 4 1 2 5 7 8 8 8 9 8 8 7 14
13 13 13 12 12 13 13 12 10 9 8 7 6 7 7 10 10 5 5 4 7 6 6 6 4 3 4 12 10 7 3 1 3 6 8 8 8 9 9 10 10 8 9
15 15 13 12 13 13 13 12 11 9 8 5 5 5 4 5 1 1 2 3 4 5 5 3 1 2 3 4 8 7 4 2 5 8 9 8 9 8 8 6 5 7 6
12 14 16 18 14 12 12 9 8 5 5 3 3 5 3 3 5 5 3 1 2 3 2 2 1 3 5 6 7 7 6 4 4 6 7 8 7 6 6 8 9 9 11
8 10 13 16 17 19 14 9 6 2 3 4 3 5 7 6 4 4 2 2 1 2 2 2 2 2 4 7 7 7 5 4 4 3 6 6 7 8 10 11 9 8 8
20 16 16 19 16 14 13 7 6 5 3 5 4 5 6 6 8 7 6 5 4 3 4 4 4 4 6 8 9 9 8 4 2 3 3 4 5 7 10 10 9 7 6
21 14 16 21 20 16 13 19 17 16 15 9 7 9 8 6 6 7 6 8 8 8 5 5 5 6 7 7 9 8 8 6 4 2 4 5 6 8 9 9 7 8 9
26 22 21 21 19 22 20 19 19 16 12 9 14 14 12 9 7 8 8 9 7 7 6 6 7 8 9 7 6 7 6 7 6 4 4 5 7 7 6 8 8 9 10
28 26 27 26 26 25 24 22 19 17 16 16 15 14 10 8 8 9 8 6 5 10 10 10 5 7 7 9 9 8 5 5 4 3 5 5 6 6 6 7 8 7 10
23 28 26 26 27 25 23 21 18 16 14 13 12 12 9 8 7 8 8 8 9 4 5 5 4 6 9 9 8 7 6 5 3 2 3 3 5 7 7 9 8 6 8
21 26 24 23 24 23 21 19 15 14 13 12 11 11 9 8 7 7 7 8 10 10 4 3 3 4 7 8 8 6 6 5 3 1 3 4 4 6 9 9 6 8 9
21 23 23 24 24 23 21 18 15 14 13 12 12 11 10 8 7 7 8 8 10 12 13 7 8 9 7 7 7 6 5 5 4 2 0 0 3 5 8 8 7 9 11
19 23 23 22 21 20 17 15 14 13 11 10 10 9 9 8 6 6 6 8 9 9 6 7 7 7 7 8 8 8 6 5 3 3 1 1 1 3 5 8 8 8 9
16 18 20 19 19 18 15 14 12 9 8 9 8 7 8 8 9 8 7 8 8 8 8 8 5 7 8 9 10 8 7 6 6 6 5 4 2 3 5 8 10 7 7
15 17 17 18 17 16 15 14 12 9 9 8 7 7 6 6 8 8 8 10 10 8 7 8 6 7 7 8 10 9 7 7 8 7 7 7 6 6 6 7 9 7 4
13 14 15 15 15 14 13 13 11 10 10 8 7 6 7 8 8 9 6 6 7 7 7 7 6 5 6 6 8 8 8 6 5 6 5 6 3 2 3 4 6 9 7
14 15 14 14 14 13 14 14 10 8 10 10 8 7 7 7 4 4 5 7 7 7 7 5 7 6 8 8 8 9 7 7 5 8 5 4 3 0 1 1 6 7 8
12 12 12 12 12 11 15 13 11 8 8 8 10 10 9 8 8 5 5 3 3 4 6 6 6 9 8 10 8 8 9 7 4 4 4 4 2 3 3 3 4 6 7
16 16 15 15 14 13 16 14 12 11 10 11 13 12 11 10 10 8 5 4 3 2 3 5 6 5 5 7 7 7 7 5 3 4 5 4 3 3 3 3 1 4 4
16 16 15 16 15 14 18 16 13 11 11 11 10 11 12 11 10 8 7 6 4 3 1 2 4 5 7 8 7 6 6 6 4 4 5 3 3 3 3 4 4 4 4
22 19 17 16 16 13 16 17 15 9 9 9 9 12 12 12 10 10 9 8 8 7 6 5 4 5 5 6 7 5 5 6 3 3 5 4 3 3 1 3 5 5 4
Wind_Direction
168 170 175 181 185 193 195 200 200 207 205 214 224 230 239 249 257 261 264 276 282 286 281 277 278 280 282 288 288 292 309 304 294 292 288 285 282 286 298 306 302 319 347
176 177 179 185 195 202 200 202 200 208 216 224 236 241 248 257 257 258 266 276 292 300 285 282 283 280 281 282 259 276 277 302 305 306 313 282 279 275 277 277 280 281 282
187 187 189 194 195 199 195 203 205 218 220 220 233 240 251 258 263 276 278 282 285 296 293 293 290 286 284 263 239 247 279 308 342 341 334 331 270 273 274 267 265 274 272
194 196 207 211 204 206 202 207 209 216 219 220 233 245 252 262 278 289 286 292 290 291 292 295 286 285 281 258 246 222 262 31 15 0 349 342 327 301 285 259 255 255 257
201 206 213 222 210 214 217 212 212 215 216 221 231 245 260 274 279 281 282 285 286 288 285 285 287 276 270 243 229 220 194 117 9 4 2 350 331 325 315 324 268 250 243
204 215 220 228 216 218 216 210 211 213 222 235 251 264 268 271 280 283 288 293 299 302 298 288 283 280 251 230 196 196 197 231 334 344 346 343 332 323 317 318 311 302 251
211 214 222 236 225 221 221 216 209 215 225 236 259 270 281 282 286 278 297 324 327 340 346 335 306 235 199 193 189 192 204 233 336 341 331 327 324 315 317 311 299 311 284
227 228 230 235 234 224 219 212 207 215 217 210 263 295 285 286 280 194 309 314 315 327 343 9 66 155 164 173 200 209 220 270 326 340 339 332 321 317 306 316 326 331 344
248 247 241 240 232 215 204 185 205 227 215 227 237 263 285 271 313 239 265 259 284 304 0 5 118 167 184 202 198 213 230 272 320 1 342 345 331 323 333 324 322 312 302
289 269 270 247 237 211 184 164 134 106 9 298 273 248 253 262 266 293 224 248 315 307 314 294 267 232 220 224 225 233 246 280 303 347 346 8 10 351 344 344 317 298 280
267 282 271 235 226 180 160 173 188 222 274 258 262 264 249 245 248 255 277 246 286 263 280 267 257 250 251 242 235 236 240 246 298 320 335 323 324 327 326 337 357 5 355
249 246 216 205 194 203 213 229 230 219 221 221 248 244 242 248 235 245 261 274 274 279 253 252 247 241 242 244 250 257 260 255 249 304 357 342 341 326 329 320 327 349 347
216 215 203 201 210 211 211 211 208 210 222 217 227 231 230 230 235 239 254 268 275 288 267 244 242 246 251 249 254 250 262 264 265 288 1 340 336 332 337 333 333 328 329
218 213 203 212 209 203 204 205 210 213 209 213 223 229 228 224 222 227 236 249 274 262 264 260 244 235 236 242 248 262 251 255 268 305 332 342 333 322 318 315 338 325 341
210 197 200 198 198 202 198 198 200 202 203 209 215 220 220 218 211 219 218 223 237 270 275 222 231 246 254 249 247 244 238 241 243 294 336 328 332 324 328 316 308 284 339
203 193 191 192 189 188 188 191 194 200 202 209 218 225 222 215 210 206 210 219 226 244 256 253 223 261 262 248 244 241 240 228 219 238 291 296 297 300 310 321 313 318 328
197 194 186 182 184 185 185 191 203 203 204 211 220 220 216 209 202 207 222 227 237 240 251 260 256 257 246 229 237 243 241 228 217 207 238 242 278 293 308 328 345 337 348
188 185 181 180 182 183 187 197 204 203 208 211 214 211 208 201 196 210 226 237 246 247 255 262 229 229 229 230 236 232 226 207 190 207 222 137 17 327 344 349 338 327 335
169 174 177 178 181 188 192 192 197 195 202 211 206 209 206 201 210 220 227 241 252 251 247 249 224 231 232 228 222 226 221 214 223 246 255 246 193 298 336 335 334 330 327
171 173 179 182 186 189 190 192 192 187 194 195 199 198 198 202 215 226 238 242 246 244 239 240 227 219 228 233 225 226 226 230 236 247 257 255 254 276 303 331 346 337 338
174 176 181 185 186 186 191 191 187 187 192 188 194 207 218 217 227 241 237 231 228 230 230 226 216 206 214 208 212 221 224 230 236 231 227 253 258 268 306 12 10 9 13
188 187 187 189 188 190 197 191 183 189 197 198 191 195 204 215 216 217 219 221 219 227 225 215 217 211 226 221 213 207 202 204 226 235 221 227 210 112 15 20 24 31 33
200 194 192 194 196 197 190 191 190 199 202 206 196 197 201 209 202 184 201 217 247 243 229 233 234 230 227 225 210 201 207 208 218 211 180 216 203 191 179 70 47 42 43
206 201 199 201 198 198 196 198 203 208 213 214 205 200 202 206 207 207 213 233 239 274 261 241 236 229 218 209 203 213 204 179 182 215 201 218 203 195 192 204 139 84 88
203 201 201 202 200 201 199 201 203 196 201 204 198 204 209 211 213 215 211 215 207 197 205 185 196 198 198 194 183 178 166 165 200 204 205 202 190 189 200 213 216 169 217
211 205 207 208 208 203 204 203 203 203 206 202 204 213 218 214 213 216 203 202 205 202 178 153 130 136 136 165 177 177 180 187 191 194 212 186 170 184 173 247 226 223 240